Time,TemperatureF,DewpointF,PressureIn,WindDirection,WindDirectionDegrees,WindSpeedMPH,WindSpeedGustMPH,Humidity,HourlyPrecipIn,Conditions,Clouds,dailyrainin,SoftwareType,DateUTC
2013-04-13 00:04:00,61.0,61.0,29.79,WSW,238,10.0,-999.0,98,-99.99,,,0.00,weatherlink.com 1.10,2013-04-13 04:04:00,
2013-04-13 00:19:00,61.3,61.0,29.80,SW,234,10.0,-999.0,99,-99.99,,,0.00,weatherlink.com 1.10,2013-04-13 04:19:00,
2013-04-13 00:34:00,61.1,61.0,29.80,SW,229,8.0,-999.0,98,-99.99,,,0.00,weatherlink.com 1.10,2013-04-13 04:34:00,
2013-04-13 00:49:00,60.6,60.0,29.81,SW,227,8.0,-999.0,98,-99.99,,,0.00,weatherlink.com 1.10,2013-04-13 04:49:00,
2013-04-13 01:04:00,60.4,60.0,29.80,SW,235,8.0,-999.0,99,-99.99,,,0.00,weatherlink.com 1.10,2013-04-13 05:04:00,
2013-04-13 01:19:00,60.1,60.0,29.80,WSW,242,9.0,-999.0,98,-99.99,,,0.00,weatherlink.com 1.10,2013-04-13 05:19:00,
2013-04-13 01:34:00,60.0,60.0,29.80,West,263,6.0,-999.0,99,-99.99,,,0.00,weatherlink.com 1.10,2013-04-13 05:34:00,
2013-04-13 01:49:00,60.5,60.0,29.81,WSW,244,11.0,-999.0,99,-99.99,,,0.00,weatherlink.com 1.10,2013-04-13 05:49:00,
2013-04-13 02:04:00,59.6,59.0,29.81,WSW,250,5.0,-999.0,98,-99.99,,,0.00,weatherlink.com 1.10,2013-04-13 06:04:00,
2013-04-13 02:19:00,59.1,59.0,29.80,WSW,250,9.0,-999.0,98,-99.99,,,0.00,weatherlink.com 1.10,2013-04-13 06:19:00,
2013-04-13 02:34:00,58.4,58.0,29.80,WSW,241,6.0,-999.0,98,-99.99,,,0.00,weatherlink.com 1.10,2013-04-13 06:34:00,
2013-04-13 02:49:00,58.3,58.0,29.81,WSW,242,8.0,-999.0,99,-99.99,,,0.00,weatherlink.com 1.10,2013-04-13 06:49:00,
2013-04-13 03:04:00,58.2,58.0,29.81,WSW,250,6.0,-999.0,99,-99.99,,,0.00,weatherlink.com 1.10,2013-04-13 07:04:00,
2013-04-13 03:19:00,57.9,57.0,29.81,WSW,247,6.0,-999.0,98,-99.99,,,0.00,weatherlink.com 1.10,2013-04-13 07:19:00,
2013-04-13 03:34:00,58.1,58.0,29.81,West,275,7.0,-999.0,99,-99.99,,,0.00,weatherlink.com 1.10,2013-04-13 07:34:00,
2013-04-13 03:49:00,58.6,58.0,29.82,West,264,8.0,-999.0,99,-99.99,,,0.01,weatherlink.com 1.10,2013-04-13 07:49:00,
2013-04-13 04:04:00,57.7,57.0,29.83,WSW,257,7.0,-999.0,98,-99.99,,,0.01,weatherlink.com 1.10,2013-04-13 08:04:00,
2013-04-13 04:34:00,58.1,58.0,29.83,West,273,3.0,-999.0,99,-99.99,,,0.01,weatherlink.com 1.10,2013-04-13 08:34:00,
2013-04-13 04:49:00,57.6,57.0,29.84,WSW,257,5.0,-999.0,99,-99.99,,,0.01,weatherlink.com 1.10,2013-04-13 08:49:00,
2013-04-13 05:19:00,57.6,57.0,29.86,WNW,289,3.0,-999.0,99,-99.99,,,0.01,weatherlink.com 1.10,2013-04-13 09:19:00,
2013-04-13 05:34:00,57.6,57.0,29.87,WNW,300,4.0,-999.0,99,-99.99,,,0.01,weatherlink.com 1.10,2013-04-13 09:34:00,
2013-04-13 05:49:00,60.8,61.0,29.87,NNW,331,5.0,-999.0,100,-99.99,,,0.01,weatherlink.com 1.10,2013-04-13 09:49:00,
2013-04-13 06:04:00,60.5,60.0,29.88,NNW,333,7.0,-999.0,99,-99.99,,,0.01,weatherlink.com 1.10,2013-04-13 10:04:00,
2013-04-13 06:19:00,58.7,58.0,29.88,NNW,327,5.0,-999.0,98,-99.99,,,0.01,weatherlink.com 1.10,2013-04-13 10:19:00,
2013-04-13 06:34:00,58.1,57.0,29.89,NW,323,9.0,-999.0,96,-99.99,,,0.01,weatherlink.com 1.10,2013-04-13 10:34:00,
2013-04-13 06:50:00,58.4,56.0,29.90,NNW,331,8.0,-999.0,93,-99.99,,,0.01,weatherlink.com 1.10,2013-04-13 10:50:00,
2013-04-13 07:05:00,59.1,56.0,29.90,NNW,344,9.0,-999.0,90,-99.99,,,0.01,weatherlink.com 1.10,2013-04-13 11:05:00,
2013-04-13 07:35:00,60.3,54.0,29.91,NNW,342,12.0,-999.0,80,-99.99,,,0.01,weatherlink.com 1.10,2013-04-13 11:35:00,
2013-04-13 07:50:00,60.7,54.0,29.92,North,355,10.0,-999.0,78,-99.99,,,0.01,weatherlink.com 1.10,2013-04-13 11:50:00,
2013-04-13 08:20:00,61.3,53.0,29.93,NNW,344,12.0,-999.0,74,-99.99,,,0.01,weatherlink.com 1.10,2013-04-13 12:20:00,
2013-04-13 08:35:00,62.0,54.0,29.94,North,11,7.0,-999.0,75,-99.99,,,0.01,weatherlink.com 1.10,2013-04-13 12:35:00,
2013-04-13 08:50:00,62.9,55.0,29.95,NE,37,14.0,-999.0,76,-99.99,,,0.01,weatherlink.com 1.10,2013-04-13 12:50:00,
2013-04-13 09:05:00,62.8,56.0,29.96,NE,53,8.0,-999.0,79,-99.99,,,0.01,weatherlink.com 1.10,2013-04-13 13:05:00,
2013-04-13 09:35:00,62.3,57.0,29.96,NE,42,6.0,-999.0,83,-99.99,,,0.01,weatherlink.com 1.10,2013-04-13 13:35:00,
2013-04-13 10:05:00,60.5,56.0,29.98,ENE,70,12.0,-999.0,85,-99.99,,,0.01,weatherlink.com 1.10,2013-04-13 14:05:00,
2013-04-13 10:20:00,61.0,57.0,29.98,NE,45,8.0,-999.0,85,-99.99,,,0.01,weatherlink.com 1.10,2013-04-13 14:20:00,
2013-04-13 10:35:00,62.2,57.0,29.99,NE,55,8.0,-999.0,82,-99.99,,,0.01,weatherlink.com 1.10,2013-04-13 14:35:00,
2013-04-13 10:50:00,63.6,57.0,29.98,East,96,9.0,-999.0,78,-99.99,,,0.01,weatherlink.com 1.10,2013-04-13 14:50:00,
2013-04-13 11:05:00,64.9,56.0,29.99,NE,42,9.0,-999.0,74,-99.99,,,0.01,weatherlink.com 1.10,2013-04-13 15:05:00,
2013-04-13 11:20:00,65.1,56.0,29.99,ESE,115,12.0,-999.0,72,-99.99,,,0.01,weatherlink.com 1.10,2013-04-13 15:20:00,
2013-04-13 11:35:00,62.8,55.0,29.99,ESE,108,12.0,-999.0,76,-99.99,,,0.01,weatherlink.com 1.10,2013-04-13 15:35:00,
2013-04-13 11:50:00,62.1,55.0,29.99,ESE,121,13.0,-999.0,77,-99.99,,,0.01,weatherlink.com 1.10,2013-04-13 15:50:00,
2013-04-13 12:05:00,61.7,55.0,29.99,SE,129,11.0,-999.0,79,-99.99,,,0.01,weatherlink.com 1.10,2013-04-13 16:05:00,
2013-04-13 12:20:00,62.3,55.0,30.00,ESE,119,9.0,-999.0,77,-99.99,,,0.01,weatherlink.com 1.10,2013-04-13 16:20:00,
2013-04-13 12:35:00,62.6,55.0,30.00,ESE,119,8.0,-999.0,77,-99.99,,,0.01,weatherlink.com 1.10,2013-04-13 16:35:00,
2013-04-13 13:05:00,62.3,55.0,30.00,ESE,116,12.0,-999.0,78,-99.99,,,0.01,weatherlink.com 1.10,2013-04-13 17:05:00,
2013-04-13 13:20:00,62.5,55.0,30.00,ESE,123,12.0,-999.0,77,-99.99,,,0.01,weatherlink.com 1.10,2013-04-13 17:20:00,
2013-04-13 13:35:00,62.2,55.0,30.00,SE,127,14.0,-999.0,77,-99.99,,,0.01,weatherlink.com 1.10,2013-04-13 17:35:00,
2013-04-13 13:50:00,60.7,55.0,30.00,SE,136,17.0,-999.0,80,-99.99,,,0.01,weatherlink.com 1.10,2013-04-13 17:50:00,
2013-04-13 14:05:00,60.3,54.0,30.00,SE,128,18.0,-999.0,81,-99.99,,,0.01,weatherlink.com 1.10,2013-04-13 18:05:00,
2013-04-13 14:20:00,60.4,55.0,29.99,SE,130,18.0,-999.0,81,-99.99,,,0.01,weatherlink.com 1.10,2013-04-13 18:20:00,
2013-04-13 14:35:00,60.2,54.0,29.99,SE,126,16.0,-999.0,81,-99.99,,,0.01,weatherlink.com 1.10,2013-04-13 18:35:00,
2013-04-13 14:50:00,60.2,54.0,29.99,SE,134,18.0,-999.0,80,-99.99,,,0.01,weatherlink.com 1.10,2013-04-13 18:50:00,
2013-04-13 15:05:00,59.9,54.0,29.99,SE,129,18.0,-999.0,80,-99.99,,,0.01,weatherlink.com 1.10,2013-04-13 19:05:00,
2013-04-13 15:20:00,59.8,54.0,29.98,SE,127,17.0,-999.0,80,-99.99,,,0.01,weatherlink.com 1.10,2013-04-13 19:20:00,
2013-04-13 15:35:00,59.8,53.0,29.99,SE,124,21.0,-999.0,79,-99.99,,,0.01,weatherlink.com 1.10,2013-04-13 19:35:00,
2013-04-13 15:50:00,60.0,53.0,29.99,ESE,123,17.0,-999.0,79,-99.99,,,0.01,weatherlink.com 1.10,2013-04-13 19:50:00,
2013-04-13 16:05:00,59.9,53.0,29.98,ESE,115,19.0,-999.0,78,-99.99,,,0.01,weatherlink.com 1.10,2013-04-13 20:05:00,
2013-04-13 16:20:00,60.3,54.0,29.98,SE,128,14.0,-999.0,79,-99.99,,,0.01,weatherlink.com 1.10,2013-04-13 20:20:00,
2013-04-13 16:35:00,59.9,53.0,29.98,SE,126,17.0,-999.0,78,-99.99,,,0.01,weatherlink.com 1.10,2013-04-13 20:35:00,
2013-04-13 16:50:00,60.0,53.0,29.98,SE,129,14.0,-999.0,79,-99.99,,,0.01,weatherlink.com 1.10,2013-04-13 20:50:00,
2013-04-13 17:05:00,59.6,53.0,29.98,ESE,121,16.0,-999.0,79,-99.99,,,0.01,weatherlink.com 1.10,2013-04-13 21:05:00,
2013-04-13 17:20:00,59.6,53.0,29.98,ESE,121,16.0,-999.0,79,-99.99,,,0.01,weatherlink.com 1.10,2013-04-13 21:20:00,
2013-04-13 17:35:00,59.3,53.0,29.99,ESE,120,17.0,-999.0,80,-99.99,,,0.01,weatherlink.com 1.10,2013-04-13 21:35:00,
2013-04-13 17:50:00,59.4,53.0,29.99,ESE,119,18.0,-999.0,80,-99.99,,,0.01,weatherlink.com 1.10,2013-04-13 21:50:00,
2013-04-13 18:05:00,59.3,53.0,29.99,ESE,121,14.0,-999.0,79,-99.99,,,0.01,weatherlink.com 1.10,2013-04-13 22:05:00,
2013-04-13 18:20:00,59.0,53.0,29.99,SE,126,12.0,-999.0,80,-99.99,,,0.01,weatherlink.com 1.10,2013-04-13 22:20:00,
2013-04-13 18:35:00,58.6,52.0,29.99,SE,124,16.0,-999.0,80,-99.99,,,0.01,weatherlink.com 1.10,2013-04-13 22:35:00,
2013-04-13 18:51:00,58.3,52.0,30.00,ESE,123,17.0,-999.0,80,-99.99,,,0.01,weatherlink.com 1.10,2013-04-13 22:51:00,
2013-04-13 19:06:00,58.2,52.0,30.00,SE,126,18.0,-999.0,80,-99.99,,,0.01,weatherlink.com 1.10,2013-04-13 23:06:00,
2013-04-13 19:21:00,58.0,52.0,30.00,SE,125,16.0,-999.0,79,-99.99,,,0.01,weatherlink.com 1.10,2013-04-13 23:21:00,
2013-04-13 19:36:00,58.0,52.0,30.01,ESE,116,14.0,-999.0,80,-99.99,,,0.01,weatherlink.com 1.10,2013-04-13 23:36:00,
2013-04-13 19:51:00,57.8,51.0,30.02,ESE,119,15.0,-999.0,79,-99.99,,,0.01,weatherlink.com 1.10,2013-04-13 23:51:00,
2013-04-13 20:06:00,57.8,51.0,30.02,ESE,123,15.0,-999.0,79,-99.99,,,0.01,weatherlink.com 1.10,2013-04-14 00:06:00,
2013-04-13 20:21:00,57.8,51.0,30.02,ESE,113,13.0,-999.0,79,-99.99,,,0.01,weatherlink.com 1.10,2013-04-14 00:21:00,
2013-04-13 21:36:00,57.4,52.0,30.05,ESE,115,6.0,-999.0,83,-99.99,,,0.01,weatherlink.com 1.10,2013-04-14 01:36:00,
2013-04-13 22:36:00,58.0,53.0,30.06,ESE,123,5.0,-999.0,84,-99.99,,,0.01,weatherlink.com 1.10,2013-04-14 02:36:00,
2013-04-13 22:51:00,58.0,54.0,30.06,SE,124,5.0,-999.0,85,-99.99,,,0.01,weatherlink.com 1.10,2013-04-14 02:51:00,
2013-04-13 23:06:00,58.2,54.0,30.07,SE,134,5.0,-999.0,86,-99.99,,,0.01,weatherlink.com 1.10,2013-04-14 03:06:00,
2013-04-13 23:21:00,58.0,54.0,30.07,SE,143,4.0,-999.0,87,-99.99,,,0.01,weatherlink.com 1.10,2013-04-14 03:21:00,
2013-04-13 23:36:00,57.9,54.0,30.07,SSE,152,2.0,-999.0,88,-99.99,,,0.01,weatherlink.com 1.10,2013-04-14 03:36:00,
2013-04-13 23:51:00,57.8,55.0,30.07,SSE,152,4.0,-999.0,89,-99.99,,,0.01,weatherlink.com 1.10,2013-04-14 03:51:00,